Powrót do katalogu

COSMOS 1367 DEB

AktywnyHEO
NORAD 48266·DEBRIS·🇷🇺 Russia

Wystrzelony May 20, 1982 z Plesetsk Cosmodrome

Loading…

Następne Przeloty (najbliższe 24 godziny)

TLE

ŚwieżeSource: Space-Track

Epoka: Sep 12, 2026, 08:22 UTC

1 48266U 82045E   26255.34881296 -.00001064  00000-0 -44897-1 0  9992
2 48266  64.4692  39.4082 7178315  12.4313 358.3502  2.06316417 49426

Śledź COSMOS 1367 DEB w czasie rzeczywistym z AllMySat

Download on the App Store